This demonstration page uses our WeatherBlox Daily Observations layout. Learn more.

Left ArrowRight Arrow

39.08367, -84.50855

Hourly Observations for August 14, 2020

Temp ( °F °C ) Dew Point ( °F °C ) Humidity (%) Winds ( mph kmh ) Pressure ( in mb ) Visibility ( mi km ) Precip ( " mm )
12:53 am 00:53 Clear 71 21.7 69 20.6 94 94 N N/A 29.99 1016 10 16 N/A
1:53 am 01:53 Clear 72 22.2 68 20 87 87 N N/A 29.98 1015 10 16 N/A
2:53 am 02:53 Clear 69 20.6 67 19.4 93 93 N N/A 29.97 1015 10 16 N/A
3:53 am 03:53 Clear 69 20.6 67 19.4 93 93 N N/A 29.96 1015 10 16 N/A
4:53 am 04:53 Clear 69 20.6 66 18.9 90 90 N N/A 29.95 1014 10 16 N/A
5:53 am 05:53 Clear 69 20.6 67 19.4 93 93 N N/A 29.95 1014 10 16 N/A
6:53 am 06:53 Sunny 69 20.6 67 19.4 93 93 N N/A 29.96 1015 10 16 N/A
7:53 am 07:53 Partly Cloudy 71 21.7 68 20 90 90 N N/A 29.98 1015 9 14 N/A
8:53 am 08:53 Mostly Cloudy 74 23.3 67 19.4 79 79 NNE 3 6 29.97 1015 10 16 N/A
9:53 am 09:53 Mostly Cloudy 75 23.9 68 20 79 79 SE 5 7 29.97 1015 10 16 N/A
10:53 am 10:53 Mostly Cloudy 76 24.4 68 20 77 77 ESE 3 6 29.99 1016 10 16 N/A
11:53 am 11:53 Mostly Cloudy 77 25 69 20.6 77 77 SW 3 6 29.98 1015 10 16 0.00 0.00
12:53 pm 12:53 Cloudy with Light Rain 77 25 70 21.1 79 79 WSW 5 7 29.98 1015 10 16 0.00 0.00
1:53 pm 13:53 Cloudy with Light Rain 76 24.4 71 21.7 85 85 S 5 7 29.98 1015 8 13 0.02 0.51
2:53 pm 14:53 Partly Cloudy 77 25 71 21.7 82 82 N N/A 29.95 1014 8 13 0.00 0.00
3:53 pm 15:53 Mostly Sunny 79 26.1 73 22.8 82 82 N N/A 29.93 1014 10 16 N/A
4:53 pm 16:53 Sunny 82 27.8 71 21.7 69 69 VRB 3 6 29.92 1013 10 16 N/A
5:53 pm 17:53 Mostly Sunny 83 28.3 70 21.1 65 65 N N/A 29.91 1013 10 16 N/A
6:53 pm 18:53 Partly Cloudy 82 27.8 71 21.7 69 69 NNE 5 7 29.92 1013 10 16 N/A
7:53 pm 19:53 Partly Cloudy 80 26.7 73 22.8 79 79 N N/A 29.93 1013 10 16 N/A
8:53 pm 20:53 Mostly Clear 77 25 73 22.8 88 88 N N/A 29.92 1013 10 16 N/A
9:53 pm 21:53 Mostly Cloudy 75 23.9 72 22.2 90 90 ENE 8 13 29.93 1014 10 16 N/A
10:53 pm 22:53 Cloudy with Light Rain 71 21.7 67 19.4 87 87 NE 9 15 29.96 1015 10 16 0.00 0.00
11:53 pm 23:53 Cloudy 70 21.1 66 18.9 87 87 NNE 7 11 29.95 1014 10 16 0.00 0.00

Powered by AerisWeather